SCP
0 0 0 0 0 0 0 0 0 0 0 0 0 0 0 0 0 0 0 0 0 0 0 0 0 0 0
0 0 0 0 0 0 0 0 0 0 0 0 0 0 0 0 0 0 0 0 0 0 0 0 0 0 0
0 0 0 0 0 0 0 0 0 0 0 0 0 0 0 0 0 0 0 0 0 0 0 0 0 0 0
0 0 0 0 0 0 0 0 0 0 0 0 0 0 0 0 0 0 0 0 0 0 0 0 0 0 0
0 0 0 0 0 0 0 0 0 0 0 0 0 0 0 0 0 0 0 0 0 0 0 0 0 0 0
0 0 0 0 0 0 0 0 0 0 0 0 0 0 0 0 0 0 0 0 0 0 0 0 0 0 0
0 0 0 0 0 0 0 0 0 0 0 0 0 0 0 0 0 0 0 0 0 0 0 0 0 0 0
0 0 0 0 0 0 0 0 0 0 0 0 0 0 0 0 0 0 0 0 0 0 0 0 0 0 0
0 0 0 0 0 0 0 0 0 0 0 0 0 0 0 0 0 0 0 0 0 0 0 0 0 0 0
0 0 0 0 0 0 0 0 0 0 0 0 0 0 0 0 0 0 0 0 0 0 0 0 0 0 0
0 0 0 0 0 0 0 0 0 0 0 0 0 0 0 0 0 0 0 0 0 0 0 0 0 0 0
0 0 0 0 0 0 0 0 0 0 0 0 0 0 0 0 0 0 0 0 0 0 0 0 0 0 0
0 0 0 0 0 0 0 0 0 0 0 0 0 0 0 0 0 0 0 0 0 0 0 0 0 0 0
0 0 0 0 0 0 0 0 0 0 0 0 0 0 0 0 0 0 0 0 0 0 0 0 0 0 0
0 0 0 0 0 0 0 0 0 0 0 0 0 0 0 0 0 0 0 0 0 0 0 0 0 0 0
0 0 0 0 0 0 0 0 0 0 0 0 0 0 0 0 0 0 0 0 0 0 0 0 0 0 0
0 0 0 0 0 0 0 0 0 0 0 0 0 0 0 0 0 0 0 0 0 0 0 0 0 0 0
Wind_Speed_500mb
36 31 30 26 20 14 6 4 9 16 20 21 20 21 23 25 27 30 34 37 39 41 44 44 44 45 48
34 33 32 28 22 15 9 6 10 16 18 19 18 20 23 24 27 31 35 38 41 44 46 47 48 48 48
26 33 33 31 24 18 10 7 12 18 20 18 17 19 21 25 27 31 34 38 41 44 47 48 49 49 50
25 31 33 32 28 20 13 10 14 18 20 18 17 19 22 26 27 32 37 38 41 44 46 47 50 52 53
32 36 37 33 27 20 14 12 14 18 19 18 19 21 23 26 26 31 33 36 38 42 44 48 52 55 58
34 35 31 28 27 19 15 13 14 19 20 19 18 22 23 24 24 30 30 34 38 43 46 51 53 55 58
25 28 27 24 23 19 15 12 17 18 18 19 18 22 24 21 23 25 28 34 40 43 48 51 53 55 57
29 25 26 26 23 18 13 12 17 21 19 19 20 20 23 13 21 22 30 36 42 44 48 52 56 58 57
33 32 31 28 22 17 10 14 22 22 18 17 21 21 17 9 20 24 32 37 43 44 50 53 58 62 61
39 36 32 27 22 12 11 20 20 17 17 17 17 19 12 10 20 26 34 40 43 44 51 54 59 66 65
36 34 32 25 16 11 15 19 16 17 17 16 16 15 13 20 22 28 39 43 44 46 49 52 57 59 67
36 33 29 20 14 13 18 18 17 17 17 17 19 18 17 24 31 34 38 43 46 55 55 56 55 55 54
37 33 26 20 15 17 21 17 16 16 16 19 21 21 22 26 36 42 48 47 45 58 58 58 61 60 66
35 30 25 18 21 23 17 17 16 15 17 20 22 24 26 29 36 37 40 49 58 60 66 62 61 55 57
34 30 25 26 26 17 19 17 16 17 19 21 23 26 31 36 34 35 44 52 57 64 70 71 64 60 57
35 31 27 25 19 19 18 17 18 19 20 21 24 27 31 34 32 37 52 59 62 64 65 75 77 62 54
31 28 25 24 22 20 18 20 21 21 22 23 25 32 39 43 40 43 56 61 69 71 66 66 72 66 56
Wind_Direction_500mb
188 189 193 194 197 197 217 302 323 336 336 336 335 338 342 344 345 347 349 349 349 350 352 352 351 349 348
189 194 193 198 200 204 222 284 317 321 323 324 329 333 335 336 340 342 343 343 344 349 352 350 349 348 347
203 198 200 200 203 210 225 269 302 311 315 318 324 325 328 331 333 337 338 342 344 344 348 351 350 348 346
205 206 204 200 202 211 232 271 294 305 309 312 312 315 322 327 330 335 339 341 343 344 347 351 349 347 344
214 210 207 204 207 212 230 261 285 297 301 299 302 308 319 323 326 332 336 339 342 344 345 346 344 343 344
221 218 214 205 206 214 234 258 280 293 288 286 291 303 313 318 322 331 336 341 342 341 340 341 340 340 342
238 226 216 211 209 218 237 268 283 291 283 277 279 299 310 309 323 332 337 338 338 339 340 339 340 341 342
210 212 204 206 205 217 235 269 301 285 275 278 285 299 305 284 324 332 337 335 336 337 340 340 340 341 342
205 201 204 202 204 218 244 309 301 276 270 276 293 310 304 261 330 329 335 334 336 336 340 340 339 340 341
205 204 202 204 210 217 286 306 276 276 265 279 300 316 308 254 326 322 330 332 336 334 340 341 341 339 341
205 202 201 201 208 251 292 284 266 263 274 289 305 319 316 313 322 325 330 330 332 333 339 341 342 340 337
203 200 199 202 216 267 278 269 259 272 285 301 315 324 323 322 330 328 328 334 332 335 339 340 340 339 340
200 196 200 209 242 259 280 248 257 275 291 308 313 320 327 331 330 334 326 334 332 333 335 339 340 343 339
195 203 206 240 248 270 238 250 265 279 296 307 313 316 321 327 331 327 326 327 332 335 333 338 340 343 340
204 209 237 250 260 230 238 252 263 278 297 305 306 311 317 325 330 326 328 330 333 335 333 333 341 346 342
214 237 247 253 222 233 244 253 266 282 295 301 303 305 309 324 333 336 333 335 333 333 333 332 336 346 341
227 234 237 215 230 235 244 256 272 288 301 306 308 311 318 325 336 347 335 332 330 330 335 335 334 340 341
Wind_Speed_850mb
36 31 30 26 20 14 6 4 9 16 20 21 20 21 23 25 27 30 34 37 39 41 44 44 44 45 48
34 33 32 28 22 15 9 6 10 16 18 19 18 20 23 24 27 31 35 38 41 44 46 47 48 48 48
26 33 33 31 24 18 10 7 12 18 20 18 17 19 21 25 27 31 34 38 41 44 47 48 49 49 50
25 31 33 32 28 20 13 10 14 18 20 18 17 19 22 26 27 32 37 38 41 44 46 47 50 52 53
32 36 37 33 27 20 14 12 14 18 19 18 19 21 23 26 26 31 33 36 38 42 44 48 52 55 58
34 35 31 28 27 19 15 13 14 19 20 19 18 22 23 24 24 30 30 34 38 43 46 51 53 55 58
25 28 27 24 23 19 15 12 17 18 18 19 18 22 24 21 23 25 28 34 40 43 48 51 53 55 57
29 25 26 26 23 18 13 12 17 21 19 19 20 20 23 13 21 22 30 36 42 44 48 52 56 58 57
33 32 31 28 22 17 10 14 22 22 18 17 21 21 17 9 20 24 32 37 43 44 50 53 58 62 61
39 36 32 27 22 12 11 20 20 17 17 17 17 19 12 10 20 26 34 40 43 44 51 54 59 66 65
36 34 32 25 16 11 15 19 16 17 17 16 16 15 13 20 22 28 39 43 44 46 49 52 57 59 67
36 33 29 20 14 13 18 18 17 17 17 17 19 18 17 24 31 34 38 43 46 55 55 56 55 55 54
37 33 26 20 15 17 21 17 16 16 16 19 21 21 22 26 36 42 48 47 45 58 58 58 61 60 66
35 30 25 18 21 23 17 17 16 15 17 20 22 24 26 29 36 37 40 49 58 60 66 62 61 55 57
34 30 25 26 26 17 19 17 16 17 19 21 23 26 31 36 34 35 44 52 57 64 70 71 64 60 57
35 31 27 25 19 19 18 17 18 19 20 21 24 27 31 34 32 37 52 59 62 64 65 75 77 62 54
31 28 25 24 22 20 18 20 21 21 22 23 25 32 39 43 40 43 56 61 69 71 66 66 72 66 56
Wind_Direction_850mb
188 189 193 194 197 197 217 302 323 336 336 336 335 338 342 344 345 347 349 349 349 350 352 352 351 349 348
189 194 193 198 200 204 222 284 317 321 323 324 329 333 335 336 340 342 343 343 344 349 352 350 349 348 347
203 198 200 200 203 210 225 269 302 311 315 318 324 325 328 331 333 337 338 342 344 344 348 351 350 348 346
205 206 204 200 202 211 232 271 294 305 309 312 312 315 322 327 330 335 339 341 343 344 347 351 349 347 344
214 210 207 204 207 212 230 261 285 297 301 299 302 308 319 323 326 332 336 339 342 344 345 346 344 343 344
221 218 214 205 206 214 234 258 280 293 288 286 291 303 313 318 322 331 336 341 342 341 340 341 340 340 342
238 226 216 211 209 218 237 268 283 291 283 277 279 299 310 309 323 332 337 338 338 339 340 339 340 341 342
210 212 204 206 205 217 235 269 301 285 275 278 285 299 305 284 324 332 337 335 336 337 340 340 340 341 342
205 201 204 202 204 218 244 309 301 276 270 276 293 310 304 261 330 329 335 334 336 336 340 340 339 340 341
205 204 202 204 210 217 286 306 276 276 265 279 300 316 308 254 326 322 330 332 336 334 340 341 341 339 341
205 202 201 201 208 251 292 284 266 263 274 289 305 319 316 313 322 325 330 330 332 333 339 341 342 340 337
203 200 199 202 216 267 278 269 259 272 285 301 315 324 323 322 330 328 328 334 332 335 339 340 340 339 340
200 196 200 209 242 259 280 248 257 275 291 308 313 320 327 331 330 334 326 334 332 333 335 339 340 343 339
195 203 206 240 248 270 238 250 265 279 296 307 313 316 321 327 331 327 326 327 332 335 333 338 340 343 340
204 209 237 250 260 230 238 252 263 278 297 305 306 311 317 325 330 326 328 330 333 335 333 333 341 346 342
214 237 247 253 222 233 244 253 266 282 295 301 303 305 309 324 333 336 333 335 333 333 333 332 336 346 341
227 234 237 215 230 235 244 256 272 288 301 306 308 311 318 325 336 347 335 332 330 330 335 335 334 340 341